CAPE
0 0 0 0 0 0 0 1 6 0 0 5 0 0 0 0 0 0 0 0 0 0 0 0 0 0 0 0 0 0 0 0 4 0 0 0 0 0 0 12 7 16 48 5
0 0 0 0 0 0 0 0 0 0 0 110 0 0 0 0 0 0 0 0 0 0 0 0 0 0 0 0 0 3 5 11 5 0 2 0 3 1 1 9 24 3 19 3
0 0 0 0 0 0 0 0 555 0 0 0 0 0 0 0 0 0 0 0 0 0 2 0 0 6 3 0 0 0 0 5 10 11 5 15 4 0 0 2 20 1 23 0
0 0 0 0 0 0 0 0 0 0 97 0 0 0 0 0 0 0 0 0 0 0 0 0 0 1 5 0 0 0 10 15 15 1 2 8 5 0 0 0 0 8 0 12
0 0 0 0 0 0 0 0 0 0 0 0 0 0 0 0 0 0 1 0 2 0 0 8 15 12 18 17 14 15 7 7 8 7 1 7 18 0 0 0 0 0 1 0
0 0 0 0 0 0 0 0 0 53 0 0 0 0 0 0 0 0 0 1 14 17 12 9 2 2 3 1 4 22 25 0 9 2 9 1 3 0 1 4 15 27 50 55
0 0 0 0 0 0 23 0 0 31 29 1 1 0 0 0 6 6 20 15 36 27 0 9 5 1 1 0 0 8 8 2 0 8 74 32 7 0 0 3 22 2 3 10
0 0 0 0 0 0 19 0 13 40 29 26 2 0 3 17 23 11 28 35 48 36 36 46 12 2 0 0 0 0 0 9 4 72 37 21 12 1 9 0 0 0 2 0
0 0 0 0 0 0 7 39 7 21 1 15 1 44 26 49 80 69 22 22 3 17 108 49 32 23 0 2 9 0 0 12 1 83 38 27 3 0 0 0 12 11 11 43
0 0 0 0 0 0 0 129 120 120 204 22 11 59 81 56 51 99 70 44 22 12 56 7 42 45 16 17 47 32 9 9 4 0 14 13 0 6 0 13 53 77 91 47
0 0 0 0 0 0 0 173 204 193 155 31 23 51 60 38 18 139 60 60 45 38 30 5 5 43 42 51 32 53 51 30 10 10 37 43 6 25 0 40 106 129 77 56
0 0 0 0 0 0 0 117 158 128 86 97 52 64 0 13 27 78 86 76 55 95 130 10 37 18 7 7 14 31 20 69 112 50 52 125 220 121 123 173 149 46 69 72
0 0 0 0 0 0 0 40 76 15 1 0 10 3 3 0 2 76 200 86 46 117 124 219 10 0 46 14 7 16 21 42 98 72 23 73 72 71 220 86 17 39 48 33
0 0 0 0 0 0 0 11 62 78 0 1 0 6 0 8 27 24 69 110 168 129 251 28 0 0 1 3 12 29 29 25 16 47 50 63 39 57 107 46 40 64 61 73
0 0 0 0 0 0 0 2 14 45 39 0 0 0 0 7 37 37 57 85 120 287 60 0 0 0 6 3 4 11 9 20 10 1 54 178 94 61 56 77 54 74 58 5
0 0 0 0 0 0 1 0 0 4 1 0 0 0 0 0 5 51 85 125 199 235 62 0 3 11 6 11 4 2 8 33 107 96 119 100 76 60 77 83 117 2 0 0
0 0 0 0 0 0 0 0 3 1 7 1 0 0 0 0 0 80 83 130 171 59 20 8 5 2 2 6 16 0 14 87 90 125 140 68 50 69 102 12 0 0 0 0
0 0 0 0 0 0 0 2 1 1 0 0 4 2 5 0 2 19 4 20 1 0 3 1 29 46 20 16 12 5 5 47 39 35 80 96 101 29 0 0 0 0 0 2
0 0 0 0 0 0 3 0 0 0 0 0 0 16 10 2 15 2 11 9 1 19 12 82 81 44 89 1 8 29 31 62 68 53 53 7 0 0 0 0 0 0 2 11
0 0 1 4 12 0 1 14 11 0 0 0 2 7 13 19 11 9 9 12 3 8 1 23 111 11 1 19 69 83 41 11 0 0 0 0 0 0 0 0 0 4 5 7
19 23 34 11 0 37 12 31 11 19 7 4 8 20 18 6 29 18 12 35 76 86 9 112 90 33 44 32 22 16 0 0 0 0 0 0 0 0 0 2 2 2 1 1
9 11 20 27 35 56 23 10 25 12 15 26 50 22 15 37 28 94 76 41 72 28 14 3 33 16 0 0 0 0 0 0 0 0 0 0 0 0 0 0 1 2 1 0
9 4 39 12 49 29 4 9 32 88 17 8 7 13 4 7 4 3 10 26 109 7 29 49 60 48 0 0 0 1 0 0 0 0 0 0 0 0 0 0 2 1 0 0
5 26 3 11 16 13 18 14 47 16 7 22 20 24 14 40 66 74 51 74 7 34 33 101 181 1 0 0 0 0 0 0 0 0 0 0 0 0 1 0 4 0 0 0
13 4 4 8 14 28 13 14 44 21 17 24 32 21 7 7 9 13 20 8 10 41 27 159 130 26 7 0 0 0 0 0 0 0 1 0 0 1 0 0 0 0 0 0
6 15 21 23 11 34 4 2 3 41 12 4 12 12 9 11 52 35 19 24 0 59 314 179 60 39 11 0 0 0 0 0 0 1 0 0 0 1 1 0 1 2 2 1
15 14 15 34 12 28 14 53 61 52 8 17 42 5 10 19 44 11 3 11 118 185 114 50 26 30 43 45 2 0 0 1 4 11 19 0 1 4 3 0 0 0 1 3
CIN
0 0 0 0 0 0 0 -11 -14 0 0 -47 0 0 0 0 0 0 0 0 0 0 0 0 0 0 0 0 0 0 0 0 0 0 0 0 0 0 0 0 0 0 0 0
0 0 0 0 0 0 0 0 0 0 0 -12 0 0 0 0 0 0 0 0 0 0 0 0 0 0 0 0 0 0 0 0 0 0 -1 0 0 0 0 0 -1 0 -1 0
0 0 0 0 0 0 0 0 -3 0 0 0 0 0 0 0 0 0 0 0 0 0 0 0 0 0 -1 0 0 0 0 0 0 0 0 0 0 0 0 0 -7 0 0 0
0 0 0 0 0 0 0 0 0 0 -2 0 0 0 0 0 0 0 0 0 0 0 0 0 0 0 0 0 0 0 0 -1 0 0 0 0 0 0 0 0 0 -1 0 0
0 0 0 0 0 0 0 0 0 0 0 0 0 0 0 0 0 0 0 0 0 0 0 -1 0 0 0 0 0 0 -1 -2 -1 0 0 0 0 0 0 0 0 0 0 0
0 0 0 0 0 0 0 0 0 -11 0 0 0 0 0 0 0 0 0 0 0 -1 0 0 0 0 0 0 0 0 -4 -3 0 0 0 -15 0 0 -2 -1 0 0 -1 0
0 0 0 0 0 0 -38 0 0 -10 -10 -1 -1 0 0 0 0 0 0 0 0 -1 -1 -1 0 0 0 0 0 0 -19 0 0 0 0 0 -1 0 0 -1 -1 0 0 0
0 0 0 0 0 0 -27 0 -23 -26 -28 -6 0 0 0 0 -1 0 0 0 0 -8 0 -2 -1 -7 0 0 0 0 0 -9 0 0 0 0 0 0 -1 0 0 0 0 -1
0 0 0 0 0 0 -42 -14 -48 -13 -1 -7 -3 0 0 0 0 0 -4 0 -20 -14 -2 0 0 0 0 -1 0 0 0 -30 0 0 0 0 0 0 0 0 0 -9 -21 -2
0 0 0 0 0 0 0 -1 -14 0 -4 -4 -6 -11 -7 0 0 0 -1 0 -8 -2 0 0 0 0 -1 -1 -6 -14 -1 0 0 0 0 0 0 -1 0 -2 0 0 0 0
0 0 0 0 0 0 0 0 -1 0 0 -1 -3 -4 -7 0 -1 -1 0 0 0 0 0 0 -4 -1 0 -1 0 -4 -4 -3 -15 0 0 0 -2 -1 -1 -8 -1 0 -1 0
0 0 0 0 0 0 0 0 -2 -1 0 0 -4 0 0 -1 -10 0 0 0 -1 -1 0 -2 -1 -10 0 -2 0 0 0 0 0 0 0 -1 0 -2 0 0 0 0 -5 0
0 0 0 0 0 0 0 -5 -4 -15 0 0 0 -1 -85 0 -12 -1 0 -3 -1 0 0 -1 -11 -1 -2 -1 -2 0 -1 0 0 0 0 0 -1 -1 0 0 -13 -3 0 -4
0 0 0 0 0 0 0 0 -14 -1 0 -3 0 -33 0 -15 -1 -11 -5 0 0 0 0 -5 0 0 -1 -4 -4 -1 -3 -9 -2 0 -1 -1 -1 -2 0 0 0 0 0 0
0 0 0 0 0 0 0 0 -6 -10 -7 0 0 0 -29 -34 -3 -4 -5 0 -1 0 -3 0 -6 -3 -10 -3 -7 -1 -3 -1 -1 -1 -1 0 0 -1 -1 0 -1 0 -1 0
0 0 0 0 0 0 0 0 0 0 0 0 0 0 0 0 -20 -1 -8 -4 0 0 -1 0 -38 -7 -5 -3 -3 -11 -2 -1 0 0 0 -1 0 0 0 0 0 -1 0 0
0 0 0 0 0 0 0 0 0 -1 0 0 0 0 0 0 0 0 0 0 -1 -2 -3 -7 -9 -8 -8 -8 0 0 -1 0 0 -1 -2 0 0 0 0 0 0 0 0 0
0 0 0 0 0 0 0 0 0 0 0 0 0 0 0 0 -1 0 -1 0 0 0 -1 -1 -5 -1 -11 -2 0 0 -8 0 0 0 0 0 0 -2 0 0 0 0 0 0
0 0 0 0 0 0 0 0 0 0 0 0 0 0 0 -1 0 0 0 0 0 -3 0 0 -1 0 0 -3 -6 -2 0 0 0 0 -1 -1 0 0 0 0 0 0 0 0
0 0 0 0 0 0 0 -1 0 0 0 0 0 0 0 0 0 0 0 0 0 -1 0 -1 0 -7 -4 -13 0 0 -8 -18 0 0 0 0 0 0 0 0 0 0 0 0
0 0 0 0 0 0 0 0 0 0 0 0 0 0 0 0 0 0 0 0 -1 0 -1 0 0 0 0 -2 -3 -21 0 0 0 0 0 0 0 0 0 0 -1 0 0 0
0 -1 -1 0 0 0 0 0 0 -1 0 0 0 0 0 -1 0 0 0 -3 -1 -2 -2 0 -1 -3 0 0 0 0 0 0 0 0 0 0 0 0 0 0 0 -3 -6 0
0 0 0 0 0 0 0 0 0 0 0 0 0 0 0 0 0 0 0 -6 0 0 0 0 -1 -7 -5 0 0 0 0 -5 0 0 0 0 0 0 0 0 -4 0 0 0
0 0 0 0 0 0 0 0 0 0 0 0 0 0 0 0 0 0 -5 0 -9 0 -4 0 0 -22 0 0 0 0 0 0 0 0 0 0 0 0 0 0 0 0 0 0
-1 0 0 0 0 0 -1 -12 -2 0 0 0 -6 -1 0 0 -1 -5 -6 -14 -4 0 -1 -1 -2 -25 -57 0 0 0 0 0 0 0 -1 0 0 0 0 0 0 0 0 0
0 0 0 0 0 0 0 0 0 -1 -3 0 0 -2 0 0 0 0 -2 0 -1 0 -1 -1 -2 -5 -12 0 0 0 0 0 0 -12 0 0 0 0 0 0 0 0 0 0
0 0 0 0 0 -11 -1 -6 -1 0 0 0 0 -3 -6 -1 0 0 0 0 -1 -1 -1 -1 -5 -2 0 0 -1 0 0 0 0 0 0 0 0 0 0 0 0 0 0 0
Wind_Speed
8 10 12 13 16 20 4 2 2 4 2 2 1 2 3 2 4 2 3 3 4 4 4 4 3 4 5 4 7 7 6 6 8 15 14 4 7 9 10 8 9 9 16 18
6 8 10 13 14 15 6 2 3 3 1 2 2 6 7 5 2 4 2 2 4 3 4 4 2 3 3 6 5 9 8 2 8 9 7 5 8 9 12 13 11 18 11 14
5 6 9 11 13 14 5 2 2 3 3 4 6 7 5 6 3 4 2 2 1 1 3 0 4 6 2 2 9 7 4 8 10 12 18 20 20 24 26 20 10 22 21 36
4 5 7 10 12 12 5 3 3 3 2 3 4 2 1 5 3 1 2 2 2 2 3 6 4 4 10 7 1 3 7 12 16 19 22 22 23 26 31 26 26 24 32 30
3 4 6 9 12 16 3 3 2 2 3 2 2 2 1 2 3 2 2 6 2 4 5 6 13 13 11 8 4 8 5 6 9 18 23 21 21 25 30 27 28 29 31 33
3 2 4 8 11 9 3 2 1 2 2 2 2 4 4 3 1 2 5 5 5 6 11 11 12 14 15 16 18 17 11 3 3 8 14 9 11 19 18 16 20 23 20 23
4 2 2 6 8 9 4 4 2 3 2 4 6 4 5 6 6 6 5 6 8 5 6 12 12 15 19 21 22 16 4 3 1 5 5 8 7 23 22 17 19 20 23 21
6 6 3 2 4 6 3 1 2 2 1 6 6 7 9 7 6 8 10 10 8 5 8 5 6 5 3 8 12 11 14 6 4 6 11 21 16 13 19 15 16 19 14 13
9 8 7 5 4 4 3 1 2 2 4 5 12 9 11 9 10 9 6 5 3 2 2 1 3 4 6 5 4 2 4 4 4 5 12 14 10 22 6 12 15 7 11 18
11 11 10 9 7 5 4 1 4 4 1 5 6 8 8 9 6 7 3 4 2 5 2 4 5 6 11 5 3 5 2 4 11 13 11 13 16 16 2 7 12 17 24 22
13 12 13 11 10 8 4 2 6 6 3 8 7 12 11 7 5 7 1 2 3 1 4 4 5 4 6 8 14 11 11 5 4 5 9 11 2 5 3 12 21 26 23 21
12 13 13 13 11 9 7 4 4 2 3 5 6 12 18 17 18 12 5 8 5 6 4 4 3 5 2 5 14 18 15 15 12 13 10 16 24 24 23 24 25 22 23 21
14 15 15 14 14 13 12 3 3 2 1 4 4 13 18 14 15 12 11 5 11 11 10 7 4 7 4 6 7 6 8 16 19 20 15 24 23 26 28 21 19 25 20 19
14 16 16 16 16 16 15 4 4 2 1 3 4 12 13 15 14 17 17 18 14 13 7 3 4 3 7 6 12 15 9 6 13 24 26 26 20 21 20 18 23 22 22 23
15 16 15 16 18 17 10 6 4 5 4 3 3 5 11 15 14 17 17 17 16 9 3 3 6 3 5 7 10 11 9 18 14 14 26 22 28 21 22 19 18 23 24 22
15 16 17 17 17 13 3 3 3 6 3 3 2 3 6 15 16 21 18 14 12 10 4 4 4 5 4 6 12 7 11 14 20 22 25 28 25 20 17 20 22 17 19 20
9 10 12 12 15 7 3 3 2 2 5 3 4 4 2 2 5 12 11 12 7 5 5 5 4 6 5 5 22 29 21 22 24 24 25 21 21 19 22 17 18 19 20 19
15 15 13 13 14 8 3 3 4 4 3 3 2 3 2 2 1 2 2 1 2 2 3 1 3 5 5 9 20 24 22 22 21 18 16 17 20 18 16 17 18 20 18 16
15 14 11 5 3 2 2 1 4 2 1 3 2 2 1 3 2 2 1 1 3 3 4 5 6 7 10 16 21 22 24 22 18 18 17 14 12 15 18 20 21 17 15 11
11 3 3 2 1 2 4 2 1 2 1 2 3 1 2 3 2 0 2 1 3 4 7 5 5 13 22 25 24 22 13 13 14 11 11 13 15 16 19 18 13 11 6 8
2 2 2 3 1 3 1 2 2 3 3 4 3 6 4 2 2 3 4 2 3 4 5 5 5 6 11 7 9 11 10 8 6 8 11 14 16 17 15 10 10 7 6 7
4 5 4 2 1 2 2 4 3 4 4 5 3 3 3 2 2 3 3 4 4 7 3 2 5 1 6 6 5 6 7 7 10 11 14 17 18 14 9 7 5 6 5 3
3 3 2 1 2 5 6 7 4 3 2 2 1 3 1 0 2 3 2 5 4 1 4 4 4 5 4 4 6 9 12 7 5 12 15 16 15 10 2 6 5 3 4 2
2 2 4 5 6 6 5 3 4 3 3 3 3 1 1 1 3 2 5 4 2 5 5 8 4 7 7 8 8 9 11 6 7 12 14 10 7 6 3 3 2 2 4 2
3 3 5 7 3 1 4 3 3 3 3 2 2 1 1 3 4 4 5 5 7 6 7 5 6 3 7 10 10 12 9 8 10 14 10 7 6 5 5 3 4 3 3 2
1 3 3 3 1 3 2 2 2 3 3 2 0 2 3 6 5 6 8 6 11 10 5 7 10 11 12 13 11 10 13 14 14 13 11 8 6 6 5 5 5 4 2 2
3 3 2 2 2 2 2 3 4 5 4 3 3 5 10 3 6 7 7 10 11 9 9 9 13 14 14 11 12 12 11 13 14 13 12 11 6 4 5 7 7 5 3 3
Wind_Direction
341 343 339 340 344 339 288 296 217 49 320 196 253 103 68 315 78 91 61 13 26 6 359 325 338 345 24 358 332 337 45 298 288 288 293 314 270 275 274 281 287 286 296 284
344 344 342 342 346 356 313 342 44 119 239 117 117 137 106 54 125 47 39 75 15 14 357 319 337 347 74 308 294 3 356 270 306 316 167 196 282 294 267 260 276 257 270 270
337 342 340 341 344 344 300 300 17 32 41 332 137 137 138 126 83 93 66 69 265 281 301 118 289 299 49 259 286 64 310 258 251 277 296 306 300 295 290 288 275 276 257 278
317 335 340 338 339 342 299 0 67 14 65 63 75 47 151 148 141 115 234 164 259 308 321 327 278 282 294 299 200 212 234 262 269 274 285 294 288 282 280 284 277 273 282 280
286 328 342 342 339 332 269 317 182 152 102 125 165 57 109 216 134 282 168 273 200 268 277 249 297 310 301 297 270 248 273 269 292 280 287 277 278 277 280 280 276 274 282 289
248 320 349 349 343 338 321 65 75 317 151 154 198 186 183 177 46 140 289 298 274 291 292 311 317 301 290 276 275 271 262 194 239 266 289 339 285 254 260 262 274 281 285 294
219 176 85 359 348 348 321 29 313 85 169 222 222 232 236 226 231 286 286 263 285 307 312 297 295 287 277 268 266 260 197 136 244 278 258 239 261 319 304 299 297 300 301 303
201 207 230 296 326 344 309 43 263 135 192 225 220 241 251 261 269 262 273 280 294 350 298 326 317 290 316 272 230 253 239 176 238 260 260 287 291 267 336 319 304 290 302 340
198 198 197 201 260 290 273 235 298 149 130 229 256 256 239 248 264 274 240 262 274 257 297 68 253 284 305 291 277 100 325 12 187 264 278 289 306 311 346 306 292 24 321 316
203 193 187 193 203 241 267 230 224 265 200 242 241 233 250 235 255 282 282 216 234 266 167 223 232 243 250 263 228 266 224 244 233 246 264 263 277 300 344 283 317 324 311 313
201 196 189 191 189 205 220 252 205 240 228 259 223 247 245 232 255 252 205 256 241 96 191 218 231 238 253 271 269 283 279 258 214 225 235 277 253 276 283 274 304 303 315 320
204 200 198 187 188 188 201 251 214 203 223 288 325 254 243 257 262 262 232 231 215 198 221 215 222 241 234 256 274 270 268 244 261 240 258 283 307 308 307 306 302 335 310 313
203 199 201 190 194 191 198 246 152 124 35 274 238 241 245 241 250 256 252 253 248 257 247 279 212 231 228 257 257 231 246 251 258 270 268 274 296 300 292 313 316 314 316 313
205 201 199 196 188 187 195 219 204 175 111 201 248 247 252 253 244 236 241 250 254 257 270 218 206 217 193 241 257 260 258 240 256 268 275 291 278 279 312 310 294 320 324 317
213 208 196 197 196 190 195 222 235 220 219 220 236 317 268 250 240 233 230 236 239 244 229 224 239 224 231 251 262 249 226 251 258 271 281 284 295 304 318 318 324 322 316 324
210 204 198 195 194 171 107 284 191 223 172 247 273 347 231 240 227 222 223 228 237 230 209 215 217 254 213 254 269 282 266 264 260 266 270 284 297 308 317 328 319 326 325 321
187 191 195 190 172 156 172 192 26 161 163 107 289 282 323 307 280 241 247 233 222 229 243 228 243 236 205 248 268 279 281 279 275 272 274 296 307 315 321 319 328 327 325 327
99 99 99 114 117 109 89 350 16 52 92 111 224 264 306 227 170 246 338 298 15 237 252 304 220 258 191 251 264 278 285 287 295 306 317 314 325 322 325 330 332 332 339 357
109 104 109 79 50 95 122 107 40 50 105 175 179 242 139 203 126 16 234 309 243 276 236 219 248 243 233 260 278 287 296 305 333 328 326 325 327 323 329 333 336 343 347 345
137 85 86 113 157 92 156 108 112 56 337 50 223 209 211 248 158 9 305 201 234 238 229 230 231 252 263 270 278 286 335 336 333 313 331 334 327 326 330 330 341 339 328 325
140 101 87 84 48 188 66 156 211 162 215 189 218 213 198 169 192 200 208 234 216 248 249 223 232 245 256 334 342 345 350 344 336 339 334 327 319 319 315 319 335 322 309 312
59 97 116 120 150 103 221 194 190 210 230 169 160 178 216 104 303 236 189 237 206 238 18 262 251 164 15 9 1 326 316 325 336 339 325 322 314 311 302 305 292 281 309 302
82 52 83 157 109 197 215 187 216 184 129 62 122 103 65 159 24 262 251 249 236 348 222 241 280 210 172 355 340 329 323 336 319 311 314 309 302 312 308 282 281 279 261 280
74 155 184 224 185 230 185 232 63 76 94 108 82 92 303 192 218 236 267 259 283 239 243 257 286 61 10 347 345 320 311 325 276 285 287 276 264 259 253 254 270 263 267 305
157 180 213 214 224 60 63 79 128 122 161 175 175 196 267 218 247 237 264 242 234 232 260 295 352 11 313 324 318 315 312 276 270 275 279 256 245 235 255 213 232 237 251 273
182 239 242 116 173 176 206 197 200 190 131 96 357 229 237 233 224 211 223 250 254 262 309 323 321 328 321 316 312 303 305 300 294 285 278 265 225 214 220 216 214 211 213 228
218 212 265 274 15 355 140 175 202 134 157 223 186 222 224 281 233 225 233 249 273 297 308 308 308 313 306 304 306 300 295 296 287 280 281 275 252 201 209 221 208 190 188 214